DW8501 Madrid ES current weather conditions

sailwx.info

Wind from 054 at 9 knots gusting 19

Air temperature 6.7° C
Dewpoint -7.3° C

Last reported at 2017-Jan-19 16:45 UTC.
Time now 2017-Jan-19 17:10 UTC

Location: N 40°27' W 003°35'.
View on Google Maps.

See reports from other nearby stations

  
Tides and Currents Weather Stations Pressure Air Temp Water Temp Dewpoint Dewpoint Depression Visibility Wind Speed Wind Dir Waves Ship Positions
date/time (UTC)wind fromknots sea level pressurealtimeterstation pressurevisibilityair tempwater tempwave heightnotes
2017-Jan-19 16:50 063 14 gusting 21 6.1
2017-Jan-19 16:45 054 9 gusting 19 6.7
2017-Jan-19 16:40 050 9 gusting 20 6.7
2017-Jan-19 16:35 057 14 gusting 22 6.7
2017-Jan-19 16:30 064 14 gusting 22 6.7
2017-Jan-19 16:25 071 14 gusting 22 6.7
2017-Jan-19 16:20 072 16 gusting 29 6.7
2017-Jan-19 16:15 080 9 gusting 29 7.2
2017-Jan-19 16:10 072 19 gusting 29 7.2
2017-Jan-19 16:05 058 6 gusting 20 7.2
2017-Jan-19 16:00 083 13 gusting 20 7.2
2017-Jan-19 15:55 084 13 gusting 20 7.2
2017-Jan-19 15:50 062 11 gusting 20 7.2
2017-Jan-19 15:45 049 9 gusting 23 7.2
2017-Jan-19 15:40 061 14 gusting 27 7.2
2017-Jan-19 15:35 077 13 gusting 27 7.2
2017-Jan-19 15:30 078 18 gusting 22 7.8
2017-Jan-19 15:25 068 14 gusting 19 7.8
2017-Jan-19 15:20 062 13 gusting 19 7.8
2017-Jan-19 15:15 068 10 gusting 24 7.2
2017-Jan-19 15:10 069 10 gusting 31 7.2
2017-Jan-19 15:05 069 13 gusting 31 7.2
2017-Jan-19 15:00 071 16 gusting 23 7.8
2017-Jan-19 14:55 064 14 gusting 23 7.8
2017-Jan-19 14:50 059 10 gusting 18 7.2
2017-Jan-19 14:45 050 13 gusting 18 7.2
2017-Jan-19 14:40 043 13 gusting 19 7.2
2017-Jan-19 14:35 053 12 gusting 22 7.2
2017-Jan-19 14:30 065 13 gusting 22 7.2
2017-Jan-19 14:25 060 17 gusting 22 7.2
2017-Jan-19 14:20 049 13 gusting 20 7.2
2017-Jan-19 14:15 048 13 gusting 20 6.7
2017-Jan-19 14:10 051 14 gusting 22 6.7
2017-Jan-19 14:05 047 9 gusting 22 6.7
2017-Jan-19 14:00 046 19 gusting 22 6.7
2017-Jan-19 13:55 050 10 gusting 19 6.7
2017-Jan-19 13:50 067 11 gusting 19 6.7
2017-Jan-19 13:45 078 12 gusting 18 6.7
2017-Jan-19 13:40 060 12 gusting 18 6.7
2017-Jan-19 13:35 057 14 gusting 19 6.7
2017-Jan-19 13:30 053 14 gusting 19 6.1
2017-Jan-19 13:25 058 15 gusting 19 6.7
2017-Jan-19 13:20 059 8 gusting 18 6.7
2017-Jan-19 13:15 062 9 gusting 19 6.7
2017-Jan-19 13:10 066 13 gusting 19 6.1
2017-Jan-19 13:05 062 9 gusting 18 6.1
2017-Jan-19 13:00 074 10 gusting 18 5.6
2017-Jan-19 12:55 083 13 gusting 18 5.6
2017-Jan-19 12:50 085 13 gusting 18 5.6
2017-Jan-19 12:45 074 14 gusting 18 5.6
2017-Jan-19 12:40 064 13 gusting 19 5.6
2017-Jan-19 12:35 080 8 gusting 19 5.6
2017-Jan-19 12:30 084 13 gusting 19 5.6
2017-Jan-19 12:25 080 13 gusting 19 5.6
2017-Jan-19 12:20 075 7 gusting 19 5.6
2017-Jan-19 12:15 074 14 gusting 19 5.6
2017-Jan-19 12:10 083 8 gusting 19 5.0
2017-Jan-19 12:05 077 9 gusting 19 5.0
2017-Jan-19 12:00 063 13 gusting 19 5.0
2017-Jan-19 11:55 051 8 gusting 17 5.0
2017-Jan-19 11:50 060 13 gusting 15 4.4
2017-Jan-19 11:45 067 10 gusting 19 4.4
2017-Jan-19 11:40 058 13 gusting 19 4.4
2017-Jan-19 11:35 059 11 gusting 18 4.4
2017-Jan-19 11:30 063 9 gusting 17 4.4
2017-Jan-19 11:25 072 11 gusting 18 3.9
2017-Jan-19 11:20 070 14 gusting 18 4.4
2017-Jan-19 11:15 054 13 gusting 15 3.9
2017-Jan-19 11:10 050 9 gusting 18 3.9
2017-Jan-19 11:05 064 14 gusting 18 3.3
2017-Jan-19 11:00 064 14 gusting 18 3.3
2017-Jan-19 10:55 060 9 gusting 16 3.3
2017-Jan-19 10:50 069 13 gusting 14 2.8
2017-Jan-19 10:45 055 6 gusting 12 2.8
2017-Jan-19 10:40 043 7 gusting 13 2.8
2017-Jan-19 10:35 042 8 gusting 13 2.2
2017-Jan-19 10:30 053 3 gusting 13 2.2
2017-Jan-19 10:25 040 8 gusting 12 1.7
2017-Jan-19 10:20 032 6 gusting 13 1.7
2017-Jan-19 10:15 037 9 gusting 13 1.7
2017-Jan-19 10:10 040 4 gusting 13 1.1
2017-Jan-19 10:05 038 9 gusting 13 1.1
2017-Jan-19 10:00 036 9 gusting 13 0.6
2017-Jan-19 09:55 049 7 gusting 12 0.6
2017-Jan-19 09:50 053 7 gusting 12 0.6
2017-Jan-19 09:45 048 9 gusting 13 0.6
2017-Jan-19 09:40 050 7 gusting 14 0.6
2017-Jan-19 09:35 053 10 gusting 16 -0.0
2017-Jan-19 09:30 058 8 gusting 16 -0.0
2017-Jan-19 09:25 052 11 gusting 13 -0.0
2017-Jan-19 09:20 042 8 gusting 11 -0.0
2017-Jan-19 09:15 043 9 gusting 13 -0.0
2017-Jan-19 09:10 042 9 gusting 13 -0.0
2017-Jan-19 09:05 044 7 gusting 13 -0.6
2017-Jan-19 09:00 059 9 gusting 13 -0.6
2017-Jan-19 08:55 056 8 gusting 13 -0.6
2017-Jan-19 08:50 051 9 gusting 13 -0.6
2017-Jan-19 08:45 053 9 gusting 11 -0.6
2017-Jan-19 08:40 044 6 gusting 9 -0.6
2017-Jan-19 08:35 043 8 gusting 9 -0.6
2017-Jan-19 08:30 049 5 gusting 10 -1.1
2017-Jan-19 08:25 050 6 gusting 13 -1.1
2017-Jan-19 08:20 047 6 gusting 13 -1.1
2017-Jan-19 08:15 056 5 gusting 9 -1.1
2017-Jan-19 08:10 051 6 gusting 12 -1.1
2017-Jan-19 08:05 044 7 gusting 12 -1.1
2017-Jan-19 08:00 043 6 gusting 13 -1.1
2017-Jan-19 07:55 039 7 gusting 13 -1.1
2017-Jan-19 07:50 040 9 gusting 13 -1.1
2017-Jan-19 07:45 036 7 gusting 14 -1.7
2017-Jan-19 07:40 041 11 gusting 14 -1.7
2017-Jan-19 07:35 047 6 gusting 15 -1.7
2017-Jan-19 07:30 048 6 gusting 15 -1.7
2017-Jan-19 07:25 046 9 gusting 15 -1.7
2017-Jan-19 07:20 045 9 gusting 15 -1.7
2017-Jan-19 07:15 044 10 gusting 13 -1.7
2017-Jan-19 07:10 050 10 gusting 13 -1.7
2017-Jan-19 07:05 059 9 gusting 13 -1.7
2017-Jan-19 07:00 050 9 gusting 13 -1.7
2017-Jan-19 06:55 050 11 gusting 13 -1.7
2017-Jan-19 06:50 053 6 gusting 13 -1.7
2017-Jan-19 06:45 053 9 gusting 12 -1.7
2017-Jan-19 06:40 083 4 gusting 6 16.7
2017-Jan-19 06:35 091 7 gusting 10 -1.7
2017-Jan-19 06:30 077 5 gusting 11 5.0
2017-Jan-19 06:25 077 5 gusting 11 5.0
2017-Jan-19 06:20 077 5 gusting 11 5.0
2017-Jan-19 06:15 077 5 gusting 11 5.0
2017-Jan-19 06:10 077 5 gusting 11 5.0
2017-Jan-19 06:05 077 5 gusting 11 5.0
2017-Jan-19 06:00 077 5 gusting 11 5.0
2017-Jan-19 05:55 077 5 gusting 11 5.0
2017-Jan-19 05:50 077 5 gusting 11 5.0
2017-Jan-19 05:45 077 5 gusting 11 5.0
2017-Jan-19 05:40 077 5 gusting 11 5.0
2017-Jan-19 05:35 077 5 gusting 11 5.0
2017-Jan-19 05:30 077 5 gusting 11 5.0
2017-Jan-19 05:25 077 5 gusting 11 5.0
2017-Jan-19 05:20 077 5 gusting 11 5.0
2017-Jan-19 05:15 077 5 gusting 11 5.0
2017-Jan-19 05:10 077 5 gusting 11 5.0
2017-Jan-19 05:05 077 5 gusting 11 5.0
2017-Jan-19 05:00 077 5 gusting 11 5.0
2017-Jan-19 04:55 077 5 gusting 11 5.0
2017-Jan-19 04:50 077 5 gusting 11 5.0
2017-Jan-19 04:45 077 5 gusting 11 5.0
2017-Jan-19 04:40 077 5 gusting 11 5.0
2017-Jan-19 04:35 077 5 gusting 11 5.0
2017-Jan-19 04:30 077 5 gusting 11 5.0
2017-Jan-19 04:25 077 5 gusting 11 5.0
2017-Jan-19 04:20 077 5 gusting 11 5.0
2017-Jan-19 04:15 077 5 gusting 11 5.0
2017-Jan-19 04:10 077 5 gusting 11 5.0
2017-Jan-19 04:05 077 5 gusting 11 5.0
2017-Jan-19 04:00 077 5 gusting 11 5.0
2017-Jan-19 03:55 077 5 gusting 11 5.0
2017-Jan-19 03:50 077 5 gusting 11 5.0
2017-Jan-19 03:45 077 5 gusting 11 5.0
2017-Jan-19 03:40 077 5 gusting 11 5.0
2017-Jan-19 03:35 077 5 gusting 11 5.0
2017-Jan-19 03:30 077 5 gusting 11 5.0
2017-Jan-19 03:25 077 5 gusting 11 5.0
2017-Jan-19 03:20 077 5 gusting 11 5.0
2017-Jan-19 03:15 077 5 gusting 11 5.0
2017-Jan-19 03:10 077 5 gusting 11 5.0
2017-Jan-19 03:05 077 5 gusting 11 5.0
2017-Jan-19 03:00 077 5 gusting 11 5.0
2017-Jan-19 02:55 077 5 gusting 11 5.0
2017-Jan-19 02:50 077 5 gusting 11 5.0
2017-Jan-19 02:45 077 5 gusting 11 5.0
2017-Jan-19 02:40 077 5 gusting 11 5.0
2017-Jan-19 02:35 077 5 gusting 11 5.0
2017-Jan-19 02:30 077 5 gusting 11 5.0
2017-Jan-19 02:25 077 5 gusting 11 5.0
2017-Jan-19 02:20 077 5 gusting 11 5.0
2017-Jan-19 02:15 077 5 gusting 11 5.0
2017-Jan-19 02:10 077 5 gusting 11 5.0
2017-Jan-19 02:05 077 5 gusting 11 5.0
2017-Jan-19 02:00 077 5 gusting 11 5.0
2017-Jan-19 01:55 077 5 gusting 11 5.0
2017-Jan-19 01:50 077 5 gusting 11 5.0
2017-Jan-19 01:45 077 5 gusting 11 5.0
2017-Jan-19 01:40 077 5 gusting 11 5.0
2017-Jan-19 01:35 077 5 gusting 11 5.0
2017-Jan-19 01:30 077 5 gusting 11 5.0
2017-Jan-19 01:25 077 5 gusting 11 5.0
2017-Jan-19 01:20 077 5 gusting 11 5.0
2017-Jan-19 01:15 077 5 gusting 11 5.0
2017-Jan-19 01:10 077 5 gusting 11 5.0
2017-Jan-19 01:05 077 5 gusting 11 5.0
2017-Jan-19 01:00 077 5 gusting 11 5.0
2017-Jan-19 00:55 077 5 gusting 11 5.0
2017-Jan-19 00:50 077 5 gusting 11 5.0
2017-Jan-19 00:45 077 5 gusting 11 5.0
2017-Jan-19 00:40 077 5 gusting 11 5.0
2017-Jan-19 00:35 077 5 gusting 11 5.0
2017-Jan-19 00:30 077 5 gusting 11 5.0
2017-Jan-19 00:25 077 5 gusting 11 5.0
2017-Jan-19 00:20 077 5 gusting 11 5.0
2017-Jan-19 00:15 077 5 gusting 11 5.0
2017-Jan-19 00:10 077 5 gusting 11 5.0
2017-Jan-19 00:05 077 5 gusting 11 5.0
2017-Jan-19 00:00 077 5 gusting 11 5.0
2017-Jan-18 23:55 077 5 gusting 11 5.0
2017-Jan-18 23:50 077 5 gusting 11 5.0
2017-Jan-18 23:45 077 5 gusting 11 5.0
2017-Jan-18 23:40 077 5 gusting 11 5.0
2017-Jan-18 23:35 077 5 gusting 11 5.0
2017-Jan-18 23:30 077 5 gusting 11 5.0
2017-Jan-18 23:25 077 5 gusting 11 5.0
2017-Jan-18 23:20 077 5 gusting 11 5.0
2017-Jan-18 23:15 077 5 gusting 11 5.0
2017-Jan-18 23:10 077 5 gusting 11 5.0
2017-Jan-18 23:05 077 5 gusting 11 5.0
2017-Jan-18 23:00 077 5 gusting 11 5.0
2017-Jan-18 22:55 077 5 gusting 11 5.0
2017-Jan-18 22:50 077 5 gusting 11 5.0
2017-Jan-18 22:45 077 5 gusting 11 5.0
2017-Jan-18 22:40 077 5 gusting 11 5.0
2017-Jan-18 22:35 077 5 gusting 11 5.0
2017-Jan-18 22:30 077 5 gusting 11 5.0
2017-Jan-18 22:25 077 5 gusting 11 5.0
2017-Jan-18 22:20 077 5 gusting 11 5.0
2017-Jan-18 22:15 077 5 gusting 11 5.0
2017-Jan-18 22:10 077 5 gusting 11 5.0
2017-Jan-18 22:05 077 5 gusting 11 5.0
2017-Jan-18 22:00 077 5 gusting 11 5.0
2017-Jan-18 21:55 077 5 gusting 11 5.0
2017-Jan-18 21:50 077 5 gusting 11 5.0
2017-Jan-18 21:45 077 5 gusting 11 5.0
2017-Jan-18 21:40 077 5 gusting 11 5.0
2017-Jan-18 21:35 077 5 gusting 11 5.0
2017-Jan-18 21:30 077 5 gusting 11 5.0
2017-Jan-18 21:25 077 5 gusting 11 5.0
2017-Jan-18 21:20 077 5 gusting 11 5.0
2017-Jan-18 21:15 077 5 gusting 11 5.0
2017-Jan-18 21:10 077 5 gusting 11 5.0
2017-Jan-18 21:05 077 5 gusting 11 5.0
2017-Jan-18 21:00 077 5 gusting 11 5.0
2017-Jan-18 20:55 077 5 gusting 11 5.0
2017-Jan-18 20:50 077 5 gusting 11 5.0
2017-Jan-18 20:45 077 5 gusting 11 5.0
2017-Jan-18 20:40 077 5 gusting 11 5.0
2017-Jan-18 20:35 077 5 gusting 11 5.0
2017-Jan-18 20:30 077 5 gusting 11 5.0
2017-Jan-18 20:25 077 5 gusting 11 5.0
2017-Jan-18 20:20 077 5 gusting 11 5.0
2017-Jan-18 20:15 077 5 gusting 11 5.0
2017-Jan-18 20:10 077 5 gusting 11 5.0
2017-Jan-18 20:05 077 5 gusting 11 5.0
2017-Jan-18 20:00 077 5 gusting 11 5.0
2017-Jan-18 19:55 077 5 gusting 11 5.0
2017-Jan-18 19:50 077 5 gusting 11 5.0
2017-Jan-18 19:45 077 5 gusting 11 5.0
2017-Jan-18 19:40 077 5 gusting 11 5.0
2017-Jan-18 19:35 077 5 gusting 11 5.0
2017-Jan-18 19:30 077 5 gusting 11 5.0
2017-Jan-18 19:25 077 5 gusting 11 5.0
2017-Jan-18 19:20 077 5 gusting 11 5.0
2017-Jan-18 19:15 077 5 gusting 11 5.0
2017-Jan-18 19:10 077 5 gusting 11 5.0
2017-Jan-18 19:05 077 5 gusting 11 5.0
2017-Jan-18 19:00 077 5 gusting 11 5.0
2017-Jan-18 18:55 077 5 gusting 11 5.0
2017-Jan-18 18:50 077 5 gusting 11 5.0
2017-Jan-18 18:45 077 5 gusting 11 5.0
2017-Jan-18 18:40 077 5 gusting 11 5.0
2017-Jan-18 18:35 077 5 gusting 11 5.0
2017-Jan-18 18:30 077 5 gusting 11 5.0
2017-Jan-18 18:25 077 5 gusting 11 5.0
2017-Jan-18 18:20 077 5 gusting 11 5.0
2017-Jan-18 18:15 077 5 gusting 11 5.0
2017-Jan-18 18:10 077 5 gusting 11 5.0
2017-Jan-18 18:05 077 5 gusting 11 5.0
2017-Jan-18 18:00 077 5 gusting 11 5.0
2017-Jan-18 17:55 077 5 gusting 11 5.0
2017-Jan-18 17:50 077 5 gusting 11 5.0
2017-Jan-18 17:45 077 5 gusting 11 5.0
2017-Jan-18 17:40 077 5 gusting 11 5.0
2017-Jan-18 17:35 077 5 gusting 11 5.0
2017-Jan-18 17:30 077 5 gusting 11 5.0
2017-Jan-18 17:25 077 5 gusting 11 5.0
2017-Jan-18 17:20 077 5 gusting 11 5.0
2017-Jan-18 17:15 077 5 gusting 11 5.0
2017-Jan-18 17:10 077 5 gusting 11 5.0
2017-Jan-18 17:05 077 5 gusting 11 5.0
2017-Jan-18 17:00 077 5 gusting 11 5.0
2017-Jan-18 16:55 077 5 gusting 11 5.0
2017-Jan-18 16:50 077 5 gusting 11 5.0
2017-Jan-18 16:45 077 5 gusting 11 5.0
2017-Jan-18 16:40 077 5 gusting 11 5.0
2017-Jan-18 16:35 077 5 gusting 11 5.0
2017-Jan-18 16:30 077 5 gusting 11 5.0
2017-Jan-18 16:25 077 5 gusting 11 5.0
2017-Jan-18 16:20 077 5 gusting 11 5.0
2017-Jan-18 16:15 077 5 gusting 11 5.0
2017-Jan-18 16:10 077 5 gusting 11 5.0
2017-Jan-18 16:05 077 5 gusting 11 5.0
2017-Jan-18 16:00 077 5 gusting 11 5.0
2017-Jan-18 15:55 077 5 gusting 11 5.0
2017-Jan-18 15:50 077 5 gusting 11 5.0
2017-Jan-18 15:45 077 5 gusting 11 5.0
2017-Jan-18 15:40 077 5 gusting 11 5.0
2017-Jan-18 15:35 077 5 gusting 11 5.0
2017-Jan-18 15:30 077 5 gusting 11 5.0
2017-Jan-18 15:25 077 5 gusting 11 5.0
2017-Jan-18 15:20 077 5 gusting 11 5.0
2017-Jan-18 15:15 077 5 gusting 11 5.0
2017-Jan-18 15:10 077 5 gusting 11 5.0
2017-Jan-18 15:05 077 5 gusting 11 5.0
2017-Jan-18 15:00 077 5 gusting 11 5.0
2017-Jan-18 14:55 077 5 gusting 11 5.0
2017-Jan-18 14:50 077 5 gusting 11 5.0
2017-Jan-18 14:45 077 5 gusting 11 5.0
2017-Jan-18 14:40 077 5 gusting 11 5.0
2017-Jan-18 14:35 077 5 gusting 11 5.0
2017-Jan-18 14:30 077 5 gusting 11 5.0
2017-Jan-18 14:25 077 5 gusting 11 5.0
2017-Jan-18 14:20 077 5 gusting 11 5.0
2017-Jan-18 14:15 077 5 gusting 11 5.0
2017-Jan-18 14:10 077 5 gusting 11 5.0
2017-Jan-18 14:05 077 5 gusting 11 5.0
2017-Jan-18 14:00 077 5 gusting 11 5.0
2017-Jan-18 13:55 077 5 gusting 11 5.0
2017-Jan-18 13:50 059 3 gusting 11 5.0
2017-Jan-18 13:45 051 4 gusting 10 5.0
2017-Jan-18 13:40 049 6 gusting 10 5.0
2017-Jan-18 13:35 040 7 gusting 10 5.0
2017-Jan-18 13:30 054 6 gusting 9 4.4
2017-Jan-18 13:25 064 6 gusting 11 4.4
2017-Jan-18 13:20 051 4 gusting 13 4.4
2017-Jan-18 13:15 052 6 gusting 13 3.9
2017-Jan-18 13:10 063 8 gusting 11 4.4
2017-Jan-18 13:05 057 6 gusting 10 4.4
2017-Jan-18 13:00 071 4 gusting 10 4.4
2017-Jan-18 12:55 084 4 gusting 8 4.4
2017-Jan-18 12:50 086 3 gusting 9 3.9
2017-Jan-18 12:45 093 6 gusting 9 3.9
2017-Jan-18 12:40 080 6 gusting 10 3.9
2017-Jan-18 12:35 058 5 gusting 13 3.3
2017-Jan-18 12:30 052 8 gusting 13 3.3
2017-Jan-18 12:25 055 9 gusting 14 3.3
2017-Jan-18 12:20 055 8 gusting 14 2.8
2017-Jan-18 12:15 050 13 gusting 14 2.8
2017-Jan-18 12:10 054 5 gusting 14 2.8
2017-Jan-18 12:05 064 8 gusting 13 2.8
2017-Jan-18 12:00 060 9 gusting 13 2.8
2017-Jan-18 11:55 067 9 gusting 14 2.8
2017-Jan-18 11:50 075 5 gusting 14 2.8
2017-Jan-18 11:45 071 5 gusting 13 2.8
2017-Jan-18 11:40 062 6 gusting 13 2.2
2017-Jan-18 11:35 064 6 gusting 13 2.2
2017-Jan-18 11:30 083 8 gusting 13 2.2
2017-Jan-18 11:25 086 7 gusting 12 2.2
2017-Jan-18 11:20 090 8 gusting 12 2.2
2017-Jan-18 11:15 082 7 gusting 10 2.2
2017-Jan-18 11:10 073 6 gusting 10 1.7
2017-Jan-18 11:05 072 6 gusting 9 1.7
2017-Jan-18 11:00 076 6 gusting 10 1.7
2017-Jan-18 10:55 079 6 gusting 10 1.7
2017-Jan-18 10:50 070 3 gusting 12 1.1
2017-Jan-18 10:45 073 9 gusting 13 1.1
2017-Jan-18 10:40 072 7 gusting 13 1.1
2017-Jan-18 10:35 074 6 gusting 13 1.1
2017-Jan-18 10:30 081 6 gusting 13 1.1
2017-Jan-18 10:25 079 5 gusting 11 1.1
2017-Jan-18 10:20 065 6 gusting 11 0.6
2017-Jan-18 10:15 058 9 gusting 11 0.6
2017-Jan-18 10:10 079 7 gusting 11 0.6
2017-Jan-18 10:05 090 6 gusting 12 -0.0
2017-Jan-18 10:00 073 7 gusting 12 -0.0
2017-Jan-18 09:55 064 7 gusting 13 -0.0
2017-Jan-18 09:50 068 7 gusting 13 -0.6
2017-Jan-18 09:45 060 11 gusting 13 -0.6
2017-Jan-18 09:40 056 5 gusting 13 -0.6
2017-Jan-18 09:35 057 8 gusting 13 -1.1
2017-Jan-18 09:30 073 9 gusting 12 -1.1
2017-Jan-18 09:25 076 6 gusting 10 -1.1
2017-Jan-18 09:20 049 7 gusting 13 -1.7
2017-Jan-18 09:15 047 6 gusting 13 -1.7
2017-Jan-18 09:10 064 8 gusting 11 -1.7
2017-Jan-18 09:05 068 6 gusting 10 -1.7
2017-Jan-18 09:00 064 6 gusting 12 -1.7
2017-Jan-18 08:55 063 9 gusting 12 -1.7
2017-Jan-18 08:50 061 8 gusting 10 -1.7
2017-Jan-18 08:45 052 6 gusting 10 -1.7
2017-Jan-18 08:40 047 6 gusting 9 -2.2
2017-Jan-18 08:35 058 7 gusting 10 -2.2
2017-Jan-18 08:30 064 6 gusting 11 -1.7
2017-Jan-18 08:25 059 6 gusting 11 -1.7
2017-Jan-18 08:20 051 3 gusting 9 -1.7
2017-Jan-18 08:15 052 5 gusting 9 -2.2
2017-Jan-18 08:10 062 4 gusting 8 -2.2
2017-Jan-18 08:05 081 6 gusting 9 -2.2
2017-Jan-18 08:00 088 5 gusting 9 -2.2
2017-Jan-18 07:55 082 4 gusting 9 -2.8
2017-Jan-18 07:50 077 5 gusting 9 -2.8
2017-Jan-18 07:45 080 6 gusting 9 -3.3
2017-Jan-18 07:40 086 4 gusting 8 -3.3
2017-Jan-18 07:35 087 3 gusting 8 -3.3
2017-Jan-18 07:30 093 4 gusting 7 -3.3
2017-Jan-18 07:25 099 4 gusting 6 -3.3
2017-Jan-18 07:20 087 5 gusting 7 -3.3
2017-Jan-18 07:15 082 3 gusting 7 -3.3
2017-Jan-18 07:10 080 5 gusting 8 -3.3
2017-Jan-18 07:05 081 5 gusting 8 -3.3
2017-Jan-18 07:00 081 6 gusting 8 -3.3
2017-Jan-18 06:55 071 4 gusting 9 -3.3
2017-Jan-18 06:50 064 6 gusting 9 -3.3
2017-Jan-18 06:45 071 3 gusting 8 -3.3
2017-Jan-18 06:40 074 5 gusting 9 -2.8
2017-Jan-18 06:35 068 5 gusting 9 -2.8
2017-Jan-18 06:30 082 6 gusting 9 -2.8
2017-Jan-18 06:25 085 6 gusting 9 -2.8
2017-Jan-18 06:20 069 6 gusting 10 -2.8
2017-Jan-18 06:15 062 6 gusting 10 -2.8
2017-Jan-18 06:10 065 6 gusting 10 -2.8
2017-Jan-18 06:05 068 6 gusting 10 -2.8
2017-Jan-18 06:00 067 6 gusting 10 -2.8
2017-Jan-18 05:55 075 6 gusting 8 -2.8
2017-Jan-18 05:50 072 4 gusting 8 -2.8
2017-Jan-18 05:45 054 3 gusting 11 -2.8
2017-Jan-18 05:40 054 4 gusting 11 -2.8
2017-Jan-18 05:35 055 5 gusting 8 -2.8
2017-Jan-18 05:30 064 6 gusting 11 -2.2
2017-Jan-18 05:25 059 6 gusting 11 -2.2
2017-Jan-18 05:20 059 5 gusting 7 -2.2
2017-Jan-18 05:15 066 3 gusting 12 -2.2
2017-Jan-18 05:10 061 4 gusting 12 -2.2
2017-Jan-18 05:05 063 8 gusting 11 -1.7
2017-Jan-18 05:00 051 4 gusting 8 -2.2
2017-Jan-18 04:55 042 3 gusting 8 -2.2
2017-Jan-18 04:50 052 6 gusting 9 -1.7
2017-Jan-18 04:45 057 4 gusting 13 -1.7
2017-Jan-18 04:40 053 6 gusting 13 -1.7
2017-Jan-18 04:35 053 7 gusting 11 -1.7
2017-Jan-18 04:30 049 6 gusting 13 -1.7
2017-Jan-18 04:25 051 11 gusting 14 -1.7
2017-Jan-18 04:20 055 8 gusting 14 -1.7
2017-Jan-18 04:15 054 9 gusting 14 -1.7
2017-Jan-18 04:10 059 6 gusting 14 -1.7
2017-Jan-18 04:05 059 10 gusting 13 -1.7
2017-Jan-18 04:00 046 8 gusting 13 -1.7
2017-Jan-18 03:55 045 9 gusting 13 -1.7
2017-Jan-18 03:50 049 7 gusting 13 -1.7
2017-Jan-18 03:45 044 9 gusting 12 -1.7
2017-Jan-18 03:40 040 9 gusting 11 -1.7
2017-Jan-18 03:35 038 6 gusting 11 -1.7
2017-Jan-18 03:30 046 4 gusting 10 -1.7
2017-Jan-18 03:25 048 6 gusting 12 -1.7
2017-Jan-18 03:20 045 6 gusting 13 -1.7
2017-Jan-18 03:15 048 9 gusting 13 -1.1
2017-Jan-18 03:10 048 9 gusting 13 -1.1
2017-Jan-18 03:05 049 9 gusting 11 -1.1
2017-Jan-18 03:00 050 9 gusting 11 -1.1
2017-Jan-18 02:55 042 6 gusting 11 -1.1
2017-Jan-18 02:50 044 8 gusting 11 -1.1
2017-Jan-18 02:45 046 8 gusting 13 -1.1
2017-Jan-18 02:40 044 6 gusting 13 -1.1
2017-Jan-18 02:35 048 6 gusting 13 -1.1
2017-Jan-18 02:30 047 6 gusting 13 -0.6
2017-Jan-18 02:25 040 8 gusting 13 -0.6
2017-Jan-18 02:20 041 6 gusting 11 -0.6
2017-Jan-18 02:15 045 6 gusting 13 -0.6
2017-Jan-18 02:10 055 7 gusting 13 -0.6
2017-Jan-18 02:05 060 6 gusting 15 -0.6
2017-Jan-18 02:00 050 8 gusting 15 -0.6
2017-Jan-18 01:55 043 13 gusting 16 -0.6
2017-Jan-18 01:50 039 10 gusting 18 -0.0
2017-Jan-18 01:45 036 13 gusting 18 -0.0
2017-Jan-18 01:40 039 11 gusting 17 -0.0
2017-Jan-18 01:35 044 9 gusting 16 -0.0
2017-Jan-18 01:30 046 12 gusting 20 -0.0
2017-Jan-18 01:25 045 11 gusting 20 -0.0
2017-Jan-18 01:20 044 18 gusting 23 -0.0
2017-Jan-18 01:15 053 14 gusting 23 -0.6
2017-Jan-18 01:10 112 14 gusting 19 -0.6
2017-Jan-18 01:05 106 5 gusting 11 -0.6
2017-Jan-18 01:00 064 5 gusting 12 -0.6
2017-Jan-18 00:55 050 7 gusting 12 -0.6
2017-Jan-18 00:50 051 6 gusting 11 -0.6
2017-Jan-18 00:45 059 4 gusting 13 -0.6
2017-Jan-18 00:40 058 5 gusting 13 -0.6
2017-Jan-18 00:35 048 4 gusting 13 -0.6
2017-Jan-18 00:30 035 6 gusting 13 -0.6
2017-Jan-18 00:25 032 8 gusting 11 -0.6
2017-Jan-18 00:20 042 6 gusting 10 -0.6
2017-Jan-18 00:15 045 6 gusting 13 -0.6
2017-Jan-18 00:10 048 6 gusting 13 -0.6
2017-Jan-18 00:05 052 4 gusting 11 -0.6
2017-Jan-18 00:00 059 6 gusting 13 -0.6
2017-Jan-17 23:55 062 6 gusting 13 -0.6
2017-Jan-17 23:50 056 6 gusting 18 -0.0
2017-Jan-17 23:45 053 9 gusting 18 -0.0
2017-Jan-17 23:40 047 13 gusting 18 -0.0
2017-Jan-17 23:35 040 13 gusting 15 -0.0
2017-Jan-17 23:30 039 9 gusting 14 -0.0
2017-Jan-17 23:25 039 9 gusting 17 -0.0
2017-Jan-17 23:20 042 12 gusting 19 -0.0
2017-Jan-17 23:15 042 14 gusting 19 -0.0
2017-Jan-17 23:10 044 13 gusting 18 -0.0
2017-Jan-17 23:05 045 12 gusting 20 -0.0
2017-Jan-17 23:00 051 12 gusting 21 -0.0
2017-Jan-17 22:55 057 17 gusting 21 -0.0
2017-Jan-17 22:50 051 14 gusting 19 -0.0
2017-Jan-17 22:45 052 10 gusting 15 -0.0
2017-Jan-17 22:40 060 12 gusting 15 -0.0
2017-Jan-17 22:35 052 8 gusting 13 -0.0
2017-Jan-17 22:30 047 7 gusting 13 -0.0
2017-Jan-17 22:25 048 8 gusting 13 -0.0
2017-Jan-17 22:20 047 7 gusting 13 0.6
2017-Jan-17 22:15 046 6 gusting 12 0.6
2017-Jan-17 22:10 051 7 gusting 14 0.6
2017-Jan-17 22:05 044 10 gusting 14 0.6
2017-Jan-17 22:00 040 9 gusting 14 0.6
2017-Jan-17 21:55 047 11 gusting 14 0.6
2017-Jan-17 21:50 045 13 gusting 16 0.6
2017-Jan-17 21:45 037 12 gusting 18 0.6
2017-Jan-17 21:40 029 9 gusting 18 1.1
2017-Jan-17 21:35 046 15 gusting 17 1.1
2017-Jan-17 21:30 047 12 gusting 18 1.1
2017-Jan-17 21:25 044 13 gusting 18 1.1
2017-Jan-17 21:20 049 13 gusting 16 1.1
2017-Jan-17 21:15 046 9 gusting 17 1.1
2017-Jan-17 21:10 044 9 gusting 17 1.7
2017-Jan-17 21:05 042 13 gusting 17 1.7
2017-Jan-17 21:00 039 13 gusting 17 1.7
2017-Jan-17 20:55 044 13 gusting 19 1.7
2017-Jan-17 20:50 045 14 gusting 19 1.7
2017-Jan-17 20:45 047 12 gusting 18 1.7
2017-Jan-17 20:40 044 13 gusting 19 1.7
2017-Jan-17 20:35 043 13 gusting 24 2.2
2017-Jan-17 20:30 045 16 gusting 24 2.2
2017-Jan-17 20:25 034 13 gusting 19 2.2
2017-Jan-17 20:20 036 13 gusting 19 2.2
2017-Jan-17 20:15 041 13 gusting 19 2.2
2017-Jan-17 20:10 039 14 gusting 18 2.2
2017-Jan-17 20:05 039 13 gusting 17 2.2
2017-Jan-17 20:00 041 13 gusting 22 2.2
2017-Jan-17 19:55 043 13 gusting 22 2.2
2017-Jan-17 19:50 041 11 gusting 19 2.8
2017-Jan-17 19:45 035 11 gusting 19 2.8
2017-Jan-17 19:40 034 13 gusting 19 2.8
2017-Jan-17 19:35 044 15 gusting 19 2.8
2017-Jan-17 19:30 044 13 gusting 16 2.8
2017-Jan-17 19:25 041 10 gusting 15 2.8
2017-Jan-17 19:20 044 11 gusting 15 2.8
2017-Jan-17 19:15 043 12 gusting 18 2.8
2017-Jan-17 19:10 043 11 gusting 18 3.3
2017-Jan-17 19:05 038 13 gusting 19 3.3
2017-Jan-17 19:00 028 13 gusting 20 3.3
2017-Jan-17 18:55 035 16 gusting 26 3.3
2017-Jan-17 18:50 042 17 gusting 26 3.3
2017-Jan-17 18:40 043 14 gusting 23 3.3
2017-Jan-17 18:35 027 15 gusting 22 3.9
2017-Jan-17 18:30 025 14 gusting 22 3.9
2017-Jan-17 18:25 045 13 gusting 21 3.9
2017-Jan-17 18:20 038 11 gusting 23 3.9
2017-Jan-17 18:15 035 16 gusting 23 3.9
2017-Jan-17 18:10 037 13 gusting 22 3.9
2017-Jan-17 18:05 041 17 gusting 20 3.9
2017-Jan-17 18:00 035 14 gusting 22 3.9
2017-Jan-17 17:50 039 22 gusting 26 4.4
2017-Jan-17 17:45 042 16 gusting 23 4.4
2017-Jan-17 17:40 044 16 gusting 23 4.4
2017-Jan-17 17:35 042 15 gusting 22 5.0
2017-Jan-17 17:30 039 18 gusting 27 5.0
2017-Jan-17 17:25 041 17 gusting 27 5.0
2017-Jan-17 17:20 044 22 gusting 27 5.0
2017-Jan-17 17:15 041 17 gusting 23 5.0
2017-Jan-17 17:10 035 13 gusting 24 5.6
2017-Jan-17 17:05 041 14 gusting 26 5.6
2017-Jan-17 17:00 045 18 gusting 26 5.6